sat.trackr.live / text

‹ back to catalog

STARLINK-37596

NORAD 69032 · 2026-101H

PAYLOAD ACTIVE UNKNOWN

§ Identity

Operator
Country
US
Launch date
2026-05-06
Launch site
AFWTR
Launch vehicle
Mass (kg)
RCS (m²)

Purposes: comms

External: N2YO · Heavens-Above · Gunter

§ Orbital elements

Epoch: 2026-05-24T07:41:02.481504Z

Period
91.48 min
Inclination
97.2845°
Eccentricity
0.0016412
Mean motion
15.74194584 rev/d
Perigee alt
335.9 km
Apogee alt
358.0 km
Semi-major
6,725.1 km
B*
1.0110e-3
RAAN
359.0339°
Arg perigee
240.8664°
Mean anomaly
119.0958°
Rev number
288

§ Raw data

STARLINK-375961 69032U 26101H   26144.32016761  .00148021  00000+0  10110-2 0  99932 69032  97.2845 359.0339 0016412 240.8664 119.0958 15.74194584  2882

JSON: /api/v1/satellites/69032 · /tle

For live sub-satellite position, see the globe view (requires WebGL).

§ Visibility from observer

Set your observer location to see the next 7 days of passes ≥ 10°. The values pass through the URL so the page stays shareable.

No JS? Fill the form by hand. The geolocation button needs JavaScript.